QPF
0.07 0.07 0.07 0.07 0.08 0.06 0.05 0.05 0.06 0.07 0.06 0.04 0.03 0.02 0.02 0.03 0.04 0.04 0.05 0.03 0.02 0.02 0.01 0.00 0.00 0.00 0.01 0.01 0.02 0.02 0.02 0.02 0.02 0.01 0.01 0.01 0.01 0.01
0.06 0.05 0.06 0.06 0.06 0.07 0.05 0.05 0.07 0.08 0.07 0.05 0.05 0.04 0.03 0.02 0.02 0.04 0.10 0.06 0.02 0.02 0.01 0.01 0.00 0.00 0.01 0.01 0.01 0.02 0.02 0.01 0.01 0.01 0.01 0.00 0.01 0.01
0.05 0.06 0.07 0.07 0.07 0.07 0.07 0.06 0.06 0.06 0.06 0.05 0.03 0.03 0.03 0.04 0.03 0.03 0.06 0.06 0.03 0.04 0.02 0.01 0.01 0.00 0.00 0.01 0.01 0.01 0.01 0.01 0.01 0.01 0.01 0.00 0.01 0.01
0.05 0.05 0.05 0.04 0.05 0.05 0.05 0.05 0.05 0.05 0.05 0.05 0.04 0.03 0.02 0.02 0.02 0.03 0.04 0.05 0.04 0.04 0.03 0.02 0.02 0.01 0.01 0.01 0.01 0.01 0.01 0.01 0.01 0.01 0.01 0.01 0.00 0.01
0.06 0.06 0.05 0.05 0.05 0.05 0.05 0.06 0.05 0.05 0.04 0.03 0.03 0.03 0.02 0.01 0.01 0.02 0.05 0.05 0.04 0.04 0.03 0.03 0.02 0.02 0.02 0.02 0.01 0.01 0.01 0.01 0.01 0.01 0.02 0.01 0.01 0.01
0.08 0.08 0.07 0.07 0.07 0.07 0.06 0.05 0.04 0.03 0.03 0.02 0.02 0.02 0.01 0.01 0.01 0.02 0.03 0.04 0.04 0.03 0.02 0.03 0.03 0.03 0.02 0.01 0.01 0.00 0.01 0.01 0.01 0.01 0.01 0.02 0.02 0.02
0.06 0.07 0.07 0.06 0.05 0.05 0.04 0.04 0.03 0.03 0.03 0.03 0.02 0.02 0.01 0.01 0.01 0.01 0.01 0.02 0.02 0.03 0.03 0.04 0.03 0.02 0.01 0.01 0.00 0.00 0.00 0.01 0.01 0.01 0.01 0.01 0.02 0.02
0.04 0.05 0.05 0.04 0.04 0.04 0.04 0.04 0.04 0.03 0.03 0.02 0.02 0.02 0.02 0.02 0.02 0.02 0.02 0.02 0.03 0.04 0.04 0.03 0.03 0.02 0.01 0.01 0.00 0.00 0.00 0.01 0.02 0.02 0.02 0.02 0.02 0.02
0.03 0.04 0.03 0.03 0.03 0.03 0.03 0.03 0.02 0.02 0.02 0.02 0.02 0.02 0.02 0.03 0.03 0.04 0.03 0.03 0.03 0.03 0.03 0.02 0.02 0.02 0.01 0.01 0.01 0.00 0.00 0.01 0.01 0.02 0.02 0.03 0.02 0.02
0.03 0.04 0.04 0.04 0.03 0.03 0.02 0.02 0.02 0.02 0.01 0.01 0.01 0.01 0.02 0.03 0.03 0.03 0.03 0.03 0.02 0.02 0.02 0.02 0.02 0.02 0.02 0.02 0.02 0.01 0.00 0.00 0.01 0.01 0.02 0.03 0.03 0.02
0.02 0.02 0.03 0.03 0.04 0.03 0.02 0.02 0.02 0.02 0.01 0.01 0.00 0.01 0.01 0.01 0.01 0.02 0.02 0.02 0.01 0.01 0.02 0.02 0.02 0.02 0.02 0.02 0.02 0.01 0.01 0.01 0.01 0.01 0.01 0.02 0.03 0.02
0.02 0.02 0.02 0.03 0.03 0.03 0.03 0.03 0.03 0.02 0.02 0.01 0.01 0.00 0.00 0.01 0.01 0.01 0.01 0.02 0.02 0.02 0.02 0.02 0.03 0.03 0.03 0.02 0.03 0.02 0.01 0.01 0.01 0.01 0.01 0.02 0.02 0.02
0.03 0.03 0.03 0.03 0.02 0.02 0.02 0.02 0.02 0.02 0.03 0.02 0.02 0.01 0.01 0.01 0.01 0.01 0.01 0.01 0.02 0.02 0.03 0.03 0.03 0.03 0.04 0.03 0.03 0.03 0.02 0.02 0.02 0.02 0.02 0.01 0.01 0.01
0.04 0.04 0.04 0.04 0.02 0.02 0.02 0.01 0.02 0.02 0.02 0.02 0.02 0.01 0.01 0.01 0.01 0.01 0.01 0.01 0.02 0.02 0.02 0.03 0.03 0.03 0.04 0.04 0.03 0.03 0.03 0.02 0.02 0.02 0.03 0.02 0.02 0.03
0.06 0.06 0.06 0.06 0.04 0.03 0.02 0.02 0.02 0.02 0.02 0.02 0.01 0.01 0.01 0.01 0.01 0.01 0.01 0.01 0.02 0.01 0.01 0.02 0.03 0.03 0.04 0.05 0.04 0.03 0.03 0.03 0.03 0.02 0.03 0.04 0.04 0.04
0.04 0.04 0.05 0.05 0.05 0.04 0.04 0.04 0.03 0.02 0.02 0.02 0.02 0.02 0.01 0.02 0.01 0.01 0.02 0.01 0.01 0.01 0.01 0.02 0.03 0.04 0.04 0.05 0.05 0.04 0.04 0.04 0.04 0.03 0.03 0.03 0.03 0.03
0.03 0.04 0.05 0.05 0.05 0.05 0.05 0.04 0.04 0.04 0.03 0.02 0.02 0.03 0.03 0.02 0.02 0.01 0.02 0.02 0.02 0.02 0.03 0.03 0.04 0.05 0.06 0.07 0.06 0.05 0.05 0.04 0.04 0.03 0.02 0.02 0.02 0.02
0.03 0.04 0.05 0.06 0.06 0.06 0.07 0.06 0.05 0.04 0.04 0.03 0.02 0.03 0.03 0.03 0.03 0.02 0.02 0.02 0.03 0.04 0.05 0.06 0.06 0.06 0.06 0.05 0.04 0.03 0.04 0.04 0.04 0.03 0.02 0.02 0.02 0.02
0.04 0.05 0.06 0.07 0.08 0.08 0.07 0.07 0.07 0.06 0.05 0.05 0.04 0.03 0.03 0.03 0.03 0.03 0.03 0.04 0.04 0.04 0.04 0.03 0.03 0.04 0.04 0.03 0.02 0.02 0.02 0.02 0.04 0.03 0.02 0.02 0.01 0.01
0.05 0.06 0.06 0.07 0.08 0.08 0.07 0.06 0.06 0.06 0.05 0.05 0.05 0.05 0.05 0.05 0.05 0.04 0.04 0.03 0.04 0.04 0.04 0.04 0.04 0.04 0.04 0.04 0.03 0.03 0.02 0.02 0.03 0.04 0.03 0.02 0.02 0.02
0.03 0.04 0.04 0.04 0.05 0.05 0.04 0.04 0.04 0.03 0.03 0.02 0.02 0.03 0.03 0.04 0.04 0.03 0.03 0.03 0.03 0.04 0.03 0.03 0.03 0.03 0.04 0.05 0.04 0.04 0.03 0.02 0.02 0.04 0.04 0.04 0.03 0.03
0.03 0.03 0.04 0.04 0.03 0.03 0.03 0.03 0.03 0.03 0.04 0.04 0.03 0.03 0.04 0.04 0.04 0.04 0.04 0.04 0.04 0.04 0.04 0.03 0.02 0.02 0.02 0.03 0.03 0.04 0.03 0.02 0.02 0.03 0.04 0.05 0.04 0.03
0.03 0.03 0.04 0.05 0.04 0.03 0.03 0.02 0.02 0.03 0.04 0.04 0.04 0.04 0.04 0.04 0.04 0.03 0.03 0.04 0.04 0.03 0.03 0.04 0.03 0.03 0.03 0.03 0.04 0.04 0.03 0.02 0.02 0.03 0.03 0.04 0.05 0.04
MSLP
1009.40 1009.50 1009.63 1009.77 1009.87 1009.89 1009.82 1009.66 1009.41 1009.08 1008.72 1008.34 1007.97 1007.65 1007.38 1007.18 1007.06 1007.01 1007.04 1007.14 1007.31 1007.53 1007.80 1008.09 1008.40 1008.70 1008.98 1009.25 1009.48 1009.69 1009.89 1010.08 1010.29 1010.51 1010.76 1011.02 1011.30 1011.58
1009.34 1009.31 1009.34 1009.37 1009.40 1009.37 1009.29 1009.13 1008.91 1008.64 1008.33 1008.00 1007.69 1007.39 1007.14 1006.93 1006.77 1006.67 1006.63 1006.66 1006.74 1006.89 1007.09 1007.34 1007.61 1007.89 1008.18 1008.44 1008.69 1008.91 1009.11 1009.30 1009.48 1009.68 1009.88 1010.11 1010.35 1010.60
1009.46 1009.32 1009.23 1009.16 1009.09 1009.01 1008.89 1008.74 1008.55 1008.32 1008.08 1007.83 1007.58 1007.34 1007.11 1006.90 1006.71 1006.55 1006.44 1006.36 1006.35 1006.39 1006.50 1006.67 1006.89 1007.14 1007.41 1007.67 1007.93 1008.16 1008.37 1008.56 1008.73 1008.90 1009.07 1009.26 1009.45 1009.67
1009.79 1009.56 1009.36 1009.19 1009.04 1008.90 1008.75 1008.59 1008.41 1008.24 1008.05 1007.87 1007.68 1007.49 1007.29 1007.09 1006.87 1006.66 1006.46 1006.28 1006.15 1006.08 1006.08 1006.15 1006.29 1006.49 1006.73 1006.98 1007.24 1007.48 1007.69 1007.88 1008.04 1008.19 1008.33 1008.47 1008.63 1008.80
1010.30 1010.00 1009.74 1009.50 1009.29 1009.09 1008.90 1008.73 1008.57 1008.42 1008.28 1008.14 1008.01 1007.86 1007.68 1007.48 1007.24 1006.97 1006.69 1006.42 1006.18 1005.99 1005.87 1005.83 1005.88 1006.01 1006.19 1006.42 1006.65 1006.88 1007.09 1007.27 1007.42 1007.54 1007.65 1007.75 1007.86 1007.99
1010.92 1010.61 1010.32 1010.05 1009.79 1009.55 1009.34 1009.15 1008.98 1008.84 1008.72 1008.61 1008.50 1008.37 1008.21 1008.00 1007.74 1007.43 1007.09 1006.74 1006.40 1006.10 1005.87 1005.73 1005.68 1005.72 1005.84 1006.00 1006.20 1006.40 1006.58 1006.73 1006.85 1006.95 1007.01 1007.07 1007.13 1007.21
1011.57 1011.29 1011.01 1010.73 1010.47 1010.22 1009.98 1009.77 1009.58 1009.43 1009.30 1009.19 1009.08 1008.96 1008.79 1008.58 1008.30 1007.97 1007.58 1007.17 1006.76 1006.38 1006.07 1005.83 1005.69 1005.63 1005.66 1005.75 1005.88 1006.02 1006.15 1006.26 1006.33 1006.37 1006.39 1006.40 1006.40 1006.42
1012.15 1011.92 1011.68 1011.44 1011.19 1010.94 1010.69 1010.46 1010.25 1010.07 1009.91 1009.77 1009.64 1009.50 1009.33 1009.11 1008.82 1008.48 1008.08 1007.64 1007.20 1006.77 1006.39 1006.08 1005.86 1005.71 1005.65 1005.65 1005.68 1005.74 1005.79 1005.81 1005.82 1005.79 1005.75 1005.69 1005.64 1005.60
1012.56 1012.41 1012.23 1012.04 1011.82 1011.59 1011.34 1011.09 1010.85 1010.63 1010.43 1010.26 1010.09 1009.92 1009.73 1009.51 1009.23 1008.89 1008.50 1008.08 1007.63 1007.19 1006.78 1006.42 1006.13 1005.91 1005.75 1005.64 1005.57 1005.51 1005.46 1005.39 1005.31 1005.20 1005.08 1004.95 1004.83 1004.73
1012.76 1012.67 1012.56 1012.42 1012.25 1012.04 1011.80 1011.54 1011.28 1011.03 1010.79 1010.57 1010.37 1010.17 1009.96 1009.73 1009.46 1009.15 1008.79 1008.40 1007.99 1007.57 1007.16 1006.78 1006.44 1006.15 1005.90 1005.69 1005.50 1005.33 1005.15 1004.98 1004.78 1004.59 1004.38 1004.19 1004.00 1003.84
1012.74 1012.70 1012.65 1012.55 1012.42 1012.24 1012.02 1011.77 1011.50 1011.22 1010.95 1010.70 1010.46 1010.23 1010.01 1009.78 1009.53 1009.25 1008.94 1008.60 1008.23 1007.85 1007.46 1007.09 1006.72 1006.38 1006.05 1005.75 1005.45 1005.15 1004.86 1004.56 1004.27 1003.98 1003.70 1003.44 1003.20 1003.00
1012.53 1012.53 1012.51 1012.45 1012.36 1012.21 1012.02 1011.78 1011.51 1011.23 1010.95 1010.67 1010.41 1010.17 1009.93 1009.70 1009.47 1009.22 1008.96 1008.67 1008.35 1008.02 1007.67 1007.31 1006.94 1006.56 1006.17 1005.78 1005.38 1004.98 1004.57 1004.17 1003.78 1003.41 1003.07 1002.76 1002.48 1002.25
1012.21 1012.22 1012.22 1012.19 1012.12 1012.01 1011.84 1011.63 1011.39 1011.12 1010.84 1010.56 1010.29 1010.04 1009.80 1009.57 1009.35 1009.13 1008.89 1008.65 1008.39 1008.10 1007.79 1007.45 1007.07 1006.67 1006.24 1005.78 1005.30 1004.81 1004.31 1003.82 1003.36 1002.92 1002.53 1002.19 1001.90 1001.66
1011.86 1011.87 1011.87 1011.85 1011.81 1011.72 1011.59 1011.41 1011.20 1010.97 1010.71 1010.44 1010.18 1009.92 1009.68 1009.45 1009.23 1009.02 1008.81 1008.59 1008.36 1008.11 1007.82 1007.50 1007.13 1006.72 1006.26 1005.75 1005.21 1004.65 1004.09 1003.54 1003.02 1002.54 1002.12 1001.76 1001.47 1001.22
1011.56 1011.56 1011.55 1011.54 1011.51 1011.44 1011.34 1011.21 1011.04 1010.84 1010.62 1010.38 1010.13 1009.88 1009.64 1009.40 1009.18 1008.96 1008.75 1008.54 1008.33 1008.09 1007.82 1007.51 1007.14 1006.72 1006.24 1005.70 1005.12 1004.52 1003.91 1003.32 1002.76 1002.26 1001.83 1001.46 1001.17 1000.92
1011.37 1011.36 1011.34 1011.32 1011.29 1011.24 1011.17 1011.07 1010.95 1010.79 1010.61 1010.40 1010.17 1009.93 1009.69 1009.45 1009.21 1008.98 1008.76 1008.54 1008.32 1008.08 1007.81 1007.50 1007.13 1006.70 1006.21 1005.65 1005.05 1004.42 1003.78 1003.16 1002.58 1002.06 1001.61 1001.24 1000.93 1000.68
1011.32 1011.30 1011.27 1011.24 1011.20 1011.16 1011.11 1011.04 1010.95 1010.83 1010.68 1010.51 1010.31 1010.08 1009.84 1009.59 1009.33 1009.08 1008.84 1008.60 1008.35 1008.10 1007.82 1007.49 1007.12 1006.68 1006.17 1005.61 1004.98 1004.33 1003.67 1003.04 1002.44 1001.90 1001.43 1001.03 1000.69 1000.40
1011.39 1011.36 1011.32 1011.28 1011.23 1011.19 1011.14 1011.09 1011.03 1010.94 1010.83 1010.69 1010.51 1010.29 1010.06 1009.80 1009.52 1009.25 1008.98 1008.71 1008.44 1008.17 1007.86 1007.52 1007.13 1006.67 1006.15 1005.56 1004.93 1004.26 1003.58 1002.91 1002.29 1001.71 1001.20 1000.76 1000.36 999.99
1011.55 1011.52 1011.46 1011.40 1011.34 1011.29 1011.24 1011.20 1011.16 1011.09 1011.01 1010.89 1010.73 1010.53 1010.30 1010.04 1009.76 1009.46 1009.17 1008.88 1008.58 1008.28 1007.95 1007.58 1007.16 1006.68 1006.13 1005.52 1004.86 1004.16 1003.45 1002.75 1002.09 1001.47 1000.90 1000.38 999.90 999.43
1011.73 1011.70 1011.63 1011.56 1011.49 1011.42 1011.37 1011.33 1011.29 1011.25 1011.18 1011.08 1010.94 1010.75 1010.53 1010.27 1009.99 1009.69 1009.38 1009.07 1008.75 1008.42 1008.06 1007.66 1007.21 1006.69 1006.11 1005.47 1004.77 1004.04 1003.29 1002.55 1001.83 1001.15 1000.51 999.91 999.33 998.74
1011.89 1011.85 1011.78 1011.70 1011.61 1011.54 1011.48 1011.44 1011.41 1011.37 1011.32 1011.23 1011.11 1010.94 1010.73 1010.48 1010.20 1009.90 1009.59 1009.26 1008.92 1008.56 1008.17 1007.74 1007.25 1006.70 1006.08 1005.39 1004.65 1003.87 1003.08 1002.29 1001.52 1000.78 1000.07 999.39 998.71 998.01
1011.97 1011.93 1011.86 1011.77 1011.68 1011.61 1011.55 1011.52 1011.49 1011.46 1011.41 1011.34 1011.23 1011.07 1010.88 1010.64 1010.37 1010.08 1009.76 1009.43 1009.08 1008.69 1008.27 1007.80 1007.27 1006.68 1006.01 1005.27 1004.49 1003.67 1002.84 1002.01 1001.20 1000.41 999.65 998.90 998.15 997.37
1011.96 1011.92 1011.85 1011.77 1011.69 1011.63 1011.58 1011.55 1011.53 1011.50 1011.47 1011.40 1011.30 1011.16 1010.97 1010.75 1010.49 1010.20 1009.89 1009.55 1009.18 1008.78 1008.33 1007.82 1007.25 1006.61 1005.90 1005.13 1004.30 1003.45 1002.59 1001.74 1000.90 1000.10 999.32 998.55 997.77 996.96
Thickness
5755 5753 5752 5753 5752 5752 5751 5748 5742 5738 5741 5745 5747 5749 5747 5746 5743 5741 5740 5737 5735 5733 5732 5730 5728 5726 5725 5723 5721 5720 5718 5716 5715 5714 5712 5711 5710 5709
5752 5750 5749 5751 5750 5750 5749 5748 5745 5740 5737 5743 5743 5745 5743 5742 5739 5738 5737 5734 5732 5731 5729 5727 5725 5723 5722 5720 5718 5716 5715 5713 5711 5709 5708 5707 5706 5705
5750 5748 5746 5745 5746 5746 5746 5745 5743 5741 5735 5739 5742 5742 5737 5736 5735 5734 5734 5732 5732 5728 5726 5724 5721 5719 5718 5716 5714 5712 5710 5709 5707 5705 5704 5702 5701 5700
5747 5745 5744 5744 5741 5741 5740 5740 5739 5738 5734 5732 5734 5736 5733 5732 5731 5729 5730 5731 5729 5725 5722 5719 5717 5715 5713 5711 5709 5707 5705 5704 5702 5700 5699 5697 5696 5695
5744 5742 5741 5740 5737 5737 5735 5735 5736 5736 5733 5731 5730 5731 5730 5729 5726 5725 5726 5723 5724 5722 5719 5716 5713 5711 5708 5706 5704 5702 5700 5698 5697 5695 5693 5692 5690 5689
5740 5739 5739 5737 5734 5732 5732 5730 5729 5729 5728 5726 5726 5726 5724 5723 5721 5720 5720 5720 5718 5718 5715 5712 5709 5706 5704 5702 5699 5697 5695 5692 5691 5689 5687 5686 5684 5682
5735 5735 5735 5733 5730 5728 5729 5727 5725 5723 5722 5721 5720 5720 5718 5715 5714 5715 5714 5713 5712 5711 5709 5709 5707 5704 5702 5698 5695 5692 5690 5687 5685 5683 5681 5680 5678 5676
5729 5729 5729 5728 5724 5721 5719 5717 5716 5715 5715 5714 5714 5711 5709 5709 5707 5707 5706 5704 5702 5704 5701 5701 5701 5700 5698 5696 5691 5687 5684 5681 5679 5677 5675 5673 5672 5670
5724 5722 5724 5725 5720 5718 5713 5709 5708 5707 5705 5705 5706 5705 5703 5702 5699 5699 5696 5695 5694 5696 5693 5692 5694 5692 5692 5691 5686 5682 5678 5676 5673 5671 5669 5667 5665 5664
5719 5718 5716 5715 5715 5710 5709 5707 5705 5703 5700 5699 5698 5698 5697 5694 5692 5691 5689 5688 5688 5688 5686 5684 5687 5686 5687 5684 5679 5676 5673 5670 5667 5665 5663 5661 5659 5657
5713 5712 5710 5708 5704 5701 5700 5698 5696 5695 5693 5691 5689 5687 5685 5683 5682 5683 5683 5681 5681 5682 5681 5677 5678 5678 5678 5678 5675 5671 5668 5665 5662 5659 5657 5654 5652 5650
5706 5706 5702 5700 5695 5692 5692 5691 5687 5687 5687 5685 5681 5679 5679 5677 5674 5673 5675 5674 5675 5674 5674 5670 5670 5669 5668 5671 5670 5666 5662 5659 5656 5654 5651 5648 5645 5644
5699 5699 5697 5690 5686 5683 5682 5683 5681 5678 5678 5677 5676 5676 5674 5673 5671 5669 5667 5667 5667 5667 5667 5663 5663 5662 5660 5661 5662 5661 5658 5654 5651 5648 5645 5641 5638 5636
5689 5690 5688 5681 5677 5674 5673 5672 5669 5667 5670 5671 5670 5668 5668 5667 5665 5662 5659 5658 5657 5657 5656 5655 5655 5653 5652 5652 5652 5652 5651 5649 5645 5643 5640 5635 5631 5629
5679 5676 5673 5670 5667 5667 5665 5663 5661 5662 5663 5663 5662 5661 5660 5659 5657 5654 5652 5650 5650 5650 5650 5647 5646 5646 5645 5644 5644 5643 5641 5641 5638 5636 5633 5630 5627 5624
5667 5664 5660 5660 5659 5658 5657 5657 5657 5657 5656 5655 5654 5653 5652 5651 5649 5648 5646 5646 5645 5644 5642 5640 5638 5636 5636 5636 5635 5634 5633 5631 5630 5628 5626 5624 5622 5619
5656 5656 5656 5656 5655 5654 5653 5652 5651 5650 5647 5647 5645 5644 5643 5642 5641 5641 5638 5638 5637 5636 5635 5633 5631 5628 5628 5627 5626 5626 5625 5623 5623 5620 5617 5617 5617 5615
5646 5649 5649 5649 5648 5646 5645 5643 5643 5642 5640 5639 5637 5636 5636 5634 5633 5633 5632 5630 5629 5628 5627 5626 5623 5621 5620 5619 5617 5617 5617 5616 5615 5612 5611 5610 5610 5610
5639 5641 5640 5639 5638 5637 5636 5635 5634 5632 5630 5630 5629 5628 5627 5626 5625 5624 5623 5622 5621 5621 5619 5618 5616 5614 5612 5613 5612 5607 5606 5606 5605 5605 5604 5603 5603 5604
5632 5631 5629 5627 5626 5626 5625 5624 5623 5622 5621 5620 5620 5620 5619 5618 5617 5616 5615 5613 5613 5613 5611 5609 5608 5606 5604 5604 5604 5602 5597 5597 5597 5596 5597 5597 5597 5596
5621 5620 5619 5617 5616 5614 5613 5612 5612 5611 5610 5610 5610 5609 5609 5609 5608 5608 5607 5603 5603 5604 5603 5601 5599 5596 5596 5595 5595 5596 5594 5590 5589 5588 5589 5589 5590 5591
5612 5611 5609 5608 5606 5604 5603 5602 5601 5601 5600 5600 5600 5599 5599 5599 5599 5599 5598 5598 5597 5597 5596 5594 5592 5591 5590 5589 5589 5589 5589 5587 5584 5582 5581 5581 5582 5584
5603 5602 5600 5598 5596 5594 5593 5592 5591 5591 5590 5590 5590 5589 5589 5589 5590 5590 5590 5590 5589 5589 5588 5586 5585 5584 5584 5584 5584 5584 5583 5582 5581 5580 5579 5576 5575 5575